[[{"header":{"parameterUnit":"m.s-1","parameterCategory":1,"la1":30.2991,"la2":30.254,"lo1":-89.0895,"lo2":-89.0444,"dy":0.0017,"dx":0.0017,"nx":28,"ny":28,"refTime":"2024-07-02T03:00:00:Z","depth":0,"parameterNumber":2,"parameterNumberName":"U-component_of_WINDS"},"data":[0,0,0,0,0,0,0,0,0,0,0,0,0,0,0,0,0,0,0,0,0,0,0,0,0,0,0,0,0,0,0,0,0,0,0,0,0,0,0,0,0,0,0,0,0,0,0,0,0,0,0,0,0,0,0,0,0,0,-2.3161,-2.3161,0,-2.3185,-2.3186,-2.3186,-2.3185,-2.3184,-2.3184,-2.3184,-2.321,-2.3211,-2.3213,0,0,0,0,0,0,0,0,0,0,0,0,0,-2.3116,-2.3117,-2.3161,-2.3161,-2.3161,-2.3185,-2.3186,-2.3186,-2.3185,-2.3184,-2.3184,-2.3183,-2.321,-2.3211,-2.3213,0,0,0,0,0,0,0,0,0,0,0,0,0,-2.3138,-2.3117,-2.3161,-2.3164,-2.3164,-2.3185,-2.3186,-2.3186,-2.3185,-2.3184,-2.3184,-2.3183,-2.321,-2.3211,-2.3213,-2.3233,0,0,-2.3218,-2.3218,0,0,0,0,0,0,0,0,-2.3136,-2.3139,-2.3163,-2.3163,-2.3164,-2.3181,-2.318,-2.3202,-2.3185,-2.3177,-2.3184,-2.3183,-2.3201,-2.3204,-2.3209,-2.3235,-2.3236,-2.3218,-2.3219,-2.3219,-2.322,0,0,0,0,0,0,0,-2.3135,-2.3138,-2.3171,-2.3163,-2.3164,-2.3165,-2.3167,-2.3184,-2.3192,-2.3178,-2.3178,-2.318,-2.3202,-2.3208,-2.321,-2.3236,-2.3218,-2.3219,-2.322,-2.3221,-2.3283,-2.3283,0,0,0,0,0,0,-2.3132,-2.3137,-2.317,-2.3171,-2.3148,-2.3166,-2.3169,-2.3176,-2.3192,-2.3194,-2.3181,-2.318,-2.3205,-2.3208,-2.3211,-2.3238,-2.3219,-2.3221,-2.3222,-2.3282,-2.3283,-2.3284,0,0,0,0,0,0,-2.3131,-2.3135,-2.3169,-2.3154,-2.3158,-2.3167,-2.3176,-2.3177,-2.3183,-2.3194,-2.3196,-2.3186,-2.3205,-2.3209,-2.3228,-2.3239,-2.3222,-2.3223,-2.3281,-2.3282,-2.3283,-2.329,0,0,0,0,0,0,-2.313,-2.3135,-2.3142,-2.3154,-2.3159,-2.3185,-2.3176,-2.3178,-2.3186,-2.3185,-2.3199,-2.3201,-2.3205,-2.3226,-2.323,-2.324,-2.3224,-2.328,-2.3282,-2.3283,-2.3289,-2.3291,-2.3293,0,0,0,0,0,-2.3128,-2.3142,-2.3142,-2.3146,-2.3168,-2.3185,-2.3188,-2.3192,-2.3187,-2.3195,-2.3202,-2.32,-2.3237,-2.3228,-2.3232,-2.3243,-2.328,-2.3281,-2.3283,-2.3288,-2.3291,-2.3293,0,0,0,0,0,0,-2.3131,-2.3144,-2.3144,-2.3162,-2.3172,-2.3185,-2.3194,-2.3194,-2.3207,-2.3206,-2.3211,-2.3214,-2.3234,-2.3241,-2.3231,-2.3266,-2.3258,-2.326,-2.326,-2.3263,-2.3265,-2.3263,-2.3226,0,0,0,0,0,-2.3133,-2.3145,-2.3157,-2.3172,-2.3177,-2.3185,-2.3193,-2.3195,-2.3206,-2.3211,-2.322,-2.3231,-2.3246,-2.3255,-2.3268,-2.3291,-2.3295,-2.3301,-2.3303,-2.3304,-2.3306,-2.3321,-2.3324,-2.3289,-2.3289,-2.3289,0,0,-2.3139,-2.3148,-2.3155,-2.3173,-2.3181,-2.3195,-2.3189,-2.3203,-2.3213,-2.3213,-2.3232,-2.324,-2.3253,-2.3275,-2.3285,-2.3281,-2.3318,-2.3307,-2.3308,-2.3309,-2.3323,-2.3326,-2.3329,-2.329,-2.329,-2.329,0,0,-2.3156,-2.3163,-2.3177,-2.3186,-2.3199,-2.3205,-2.3209,-2.3222,-2.3226,-2.3246,-2.3247,-2.326,-2.3284,-2.3295,-2.3303,-2.3327,-2.3327,-2.3332,-2.3342,-2.3357,-2.3359,-2.3362,-2.3372,-2.3375,-2.3334,-2.3334,-2.3334,0,-2.3161,-2.318,-2.3185,-2.3199,-2.3208,-2.3209,-2.3225,-2.3234,-2.3251,-2.3257,-2.3253,-2.3285,-2.3294,-2.3319,-2.3325,-2.3332,-2.3337,-2.333,-2.3358,-2.3361,-2.3363,-2.3373,-2.3377,-2.3334,-2.3334,-2.3334,-2.3334,0,-2.3187,-2.3201,-2.3211,-2.3228,-2.3238,-2.3253,-2.3261,-2.3271,-2.3273,-2.328,-2.3301,-2.3313,-2.333,-2.3336,-2.3338,-2.3362,-2.336,-2.3357,-2.3349,-2.3367,-2.3376,-2.338,-2.3335,-2.3335,-2.3335,-2.3335,0,0,-2.3204,-2.3224,-2.3228,-2.3237,-2.3253,-2.3264,-2.3281,-2.3297,-2.3306,-2.3319,-2.3334,-2.3356,-2.3354,-2.3364,-2.3368,-2.338,-2.3401,-2.3376,-2.3376,-2.3381,-2.343,-2.3432,-2.3436,-2.3401,-2.3402,-2.3402,-2.3429,0,-2.3223,-2.3251,-2.3256,-2.3281,-2.3295,-2.3298,-2.3313,-2.3325,-2.3332,-2.3347,-2.3355,-2.3371,-2.3367,-2.3373,-2.3386,-2.3395,-2.3411,-2.3394,-2.3416,-2.3417,-2.3412,-2.344,-2.3442,-2.3466,-2.3432,-2.3433,-2.3433,0,-2.3248,-2.3262,-2.3288,-2.3304,-2.331,-2.3323,-2.334,-2.3353,-2.3368,-2.3373,-2.3385,-2.3389,-2.3408,-2.34,-2.3427,-2.3416,-2.3426,-2.3432,-2.3434,-2.3435,-2.3426,-2.3444,-2.3474,-2.3478,-2.3439,-2.3438,-2.3438,0,-2.3259,-2.3284,-2.3303,-2.3311,-2.333,-2.3339,-2.3348,-2.3362,-2.3373,-2.3388,-2.3395,-2.3413,-2.3423,-2.3437,-2.3446,-2.3439,-2.3474,-2.3466,-2.348,-2.3479,-2.3486,-2.3485,-2.3519,-2.3492,-2.3492,-2.3492,-2.3492,0,-2.328,-2.3296,-2.3309,-2.3321,-2.334,-2.3347,-2.3367,-2.3375,-2.3389,-2.3404,-2.3408,-2.3422,-2.3433,-2.3449,-2.3457,-2.3479,-2.3484,-2.3489,-2.3491,-2.3489,-2.3488,-2.3495,-2.3494,-2.3493,-2.3493,-2.3493,-2.3493,0,-2.3295,-2.3304,-2.3325,-2.3342,-2.3347,-2.336,-2.3376,-2.3388,-2.3397,-2.3416,-2.3421,-2.3435,-2.3455,-2.3465,-2.349,-2.3495,-2.3521,-2.3521,-2.3516,-2.3516,-2.353,-2.3528,-2.3569,-2.3575,-2.3544,-2.3544,-2.3544,0,-2.3307,-2.332,-2.3338,-2.3349,-2.3357,-2.3373,-2.3385,-2.3394,-2.3405,-2.3425,-2.3436,-2.3456,-2.3472,-2.3504,-2.3517,-2.3537,-2.3538,-2.3551,-2.3541,-2.354,-2.354,-2.3539,-2.3541,-2.3553,-2.3553,-2.3553,-2.3554,0,-2.3329,-2.3333,-2.3348,-2.3366,-2.3379,-2.3394,-2.3408,-2.3417,-2.3429,-2.3442,-2.3462,-2.3475,-2.3501,-2.3522,-2.3543,-2.3553,-2.3556,-2.3557,-2.3561,-2.3559,-2.3556,-2.3559,-2.3521,-2.3556,-2.3555,-2.3555,-2.3555,-2.3555,-2.3344,-2.3356,-2.3371,-2.3389,-2.3401,-2.3415,-2.3428,-2.3439,-2.3456,-2.3477,-2.3482,-2.3504,-2.3522,-2.355,-2.3562,-2.358,-2.3578,-2.3584,-2.3585,-2.3587,-2.3588,-2.3553,-2.3584,-2.3584,-2.3584,-2.3584,-2.3584,0,-2.3366,-2.3377,-2.3393,-2.3413,-2.3428,-2.3429,-2.3446,-2.3458,-2.3477,-2.3493,-2.351,-2.3534,-2.3555,-2.3571,-2.3592,-2.3604,-2.3606,-2.361,-2.3609,-2.3612,-2.3588,-2.3583,-2.3608,-2.3608,-2.3608,-2.3608,-2.3608,-2.3608,-2.338,-2.3401,-2.3408,-2.3436,-2.3447,-2.3468,-2.3477,-2.3491,-2.3504,-2.3531,-2.3548,-2.3558,-2.3575,-2.3598,-2.3618,-2.3622,-2.363,-2.3634,-2.3638,-2.3616,-2.3613,-2.3611,-2.3605,-2.3635,-2.3635,-2.366,-2.366,-2.3661]},{"header":{"parameterUnit":"m.s-1","parameterCategory":1,"la1":30.2991,"la2":30.254,"lo1":-89.0895,"lo2":-89.0444,"dy":0.0017,"dx":0.0017,"nx":28,"ny":28,"refTime":"2024-07-02T03:00:00:Z","depth":0,"parameterNumber":3,"parameterNumberName":"V-component_of_WINDS"},"data":[0,0,0,0,0,0,0,0,0,0,0,0,0,0,0,0,0,0,0,0,0,0,0,0,0,0,0,0,0,0,0,0,0,0,0,0,0,0,0,0,0,0,0,0,0,0,0,0,0,0,0,0,0,0,0,0,0,0,5.5851,5.5851,0,5.5846,5.5846,5.5846,5.5809,5.5808,5.5807,5.5806,5.5801,5.5802,5.5802,0,0,0,0,0,0,0,0,0,0,0,0,0,5.5829,5.583,5.5851,5.5851,5.5851,5.5846,5.5846,5.5846,5.5809,5.5808,5.5807,5.5806,5.5801,5.5802,5.5803,0,0,0,0,0,0,0,0,0,0,0,0,0,5.5833,5.583,5.5851,5.5832,5.583,5.5846,5.5846,5.5846,5.5809,5.5808,5.5806,5.5805,5.5801,5.5802,5.5803,5.5837,0,0,5.5806,5.5806,0,0,0,0,0,0,0,0,5.5833,5.5834,5.5835,5.5833,5.5831,5.5827,5.5836,5.5843,5.5809,5.5817,5.5806,5.5804,5.5811,5.5811,5.5813,5.5836,5.5836,5.5806,5.5807,5.5807,5.5807,0,0,0,0,0,0,0,5.5833,5.5834,5.5849,5.5835,5.5833,5.5824,5.5823,5.5837,5.5822,5.5816,5.5814,5.5814,5.5809,5.5812,5.5813,5.5836,5.5806,5.5807,5.5808,5.5808,5.5887,5.5889,0,0,0,0,0,0,5.5835,5.5834,5.5849,5.5849,5.5829,5.5825,5.5824,5.583,5.5821,5.5819,5.5815,5.5812,5.5811,5.5811,5.5812,5.5851,5.5807,5.5808,5.5809,5.5886,5.5888,5.5889,0,0,0,0,0,0,5.5835,5.5837,5.5849,5.5841,5.5842,5.5827,5.5833,5.583,5.5833,5.582,5.5817,5.582,5.581,5.5811,5.5831,5.585,5.5809,5.581,5.5884,5.5886,5.5888,5.593,0,0,0,0,0,0,5.5834,5.5837,5.5849,5.5841,5.5842,5.5868,5.5835,5.5831,5.5834,5.5831,5.5824,5.5822,5.5809,5.5829,5.5832,5.5851,5.581,5.5882,5.5885,5.5888,5.5926,5.5933,5.5939,0,0,0,0,0,5.5834,5.5861,5.585,5.5852,5.5858,5.5869,5.587,5.5854,5.5836,5.5849,5.5841,5.5822,5.5848,5.5832,5.5834,5.5854,5.5881,5.5884,5.5888,5.5924,5.5932,5.5938,0,0,0,0,0,0,5.5872,5.586,5.5847,5.5873,5.5873,5.5863,5.5878,5.5863,5.5867,5.5863,5.5844,5.5843,5.5866,5.5862,5.5844,5.5887,5.5861,5.5865,5.5888,5.5895,5.5901,5.5901,5.5811,0,0,0,0,0,5.5884,5.5894,5.5883,5.5907,5.5907,5.5893,5.5897,5.5885,5.5884,5.5883,5.5877,5.5876,5.5884,5.589,5.5896,5.5926,5.5924,5.5941,5.5947,5.5952,5.5956,5.5971,5.5978,5.59,5.59,5.59,0,0,5.5907,5.5902,5.591,5.5914,5.5912,5.5924,5.5893,5.5906,5.5914,5.5885,5.5904,5.5899,5.5897,5.5922,5.5933,5.592,5.5977,5.5956,5.596,5.5961,5.5975,5.5982,5.5989,5.5902,5.5902,5.5901,0,0,5.5956,5.5954,5.5973,5.5972,5.5969,5.596,5.5965,5.5958,5.5953,5.5972,5.595,5.596,5.5974,5.5973,5.5975,5.6025,5.6008,5.6027,5.6059,5.6074,5.608,5.6085,5.6103,5.6109,5.6031,5.6031,5.6031,0,5.5986,5.6002,5.5985,5.6,5.6002,5.5977,5.5997,5.5996,5.5996,5.5999,5.5984,5.6002,5.5998,5.6023,5.6035,5.6037,5.6042,5.6028,5.6081,5.6086,5.609,5.6107,5.6113,5.6034,5.6033,5.6033,5.6033,0,5.6039,5.6051,5.6067,5.6067,5.6072,5.6089,5.6074,5.6081,5.6069,5.6061,5.608,5.6076,5.6081,5.6086,5.6074,5.6109,5.6101,5.6084,5.6058,5.6101,5.6116,5.6122,5.6037,5.6036,5.6035,5.6035,0,0,5.6111,5.6102,5.6109,5.6109,5.6104,5.6113,5.6129,5.6134,5.614,5.6141,5.6154,5.6167,5.6151,5.6153,5.6141,5.6155,5.6194,5.6136,5.6136,5.6146,5.6232,5.6244,5.6252,5.6183,5.6184,5.6185,5.6232,0,5.6158,5.6185,5.617,5.6199,5.6209,5.6186,5.62,5.6199,5.6192,5.62,5.6193,5.6202,5.6181,5.6182,5.6194,5.6187,5.6211,5.6183,5.6195,5.6195,5.6195,5.6259,5.6273,5.6317,5.6237,5.6238,5.6239,0,5.6216,5.6219,5.6249,5.6243,5.6247,5.626,5.6263,5.6271,5.627,5.6264,5.6267,5.6251,5.6267,5.6242,5.6263,5.6245,5.6249,5.6246,5.6247,5.6247,5.6219,5.626,5.633,5.6337,5.6248,5.6248,5.6247,0,5.6265,5.6277,5.6296,5.6297,5.6291,5.63,5.6298,5.6295,5.6299,5.6303,5.6305,5.6311,5.6313,5.6318,5.6305,5.6288,5.6328,5.6301,5.6323,5.6323,5.6332,5.6331,5.6403,5.6336,5.6336,5.6335,5.6335,0,5.6318,5.6337,5.6318,5.633,5.6351,5.6334,5.6356,5.6351,5.6349,5.6359,5.634,5.635,5.6332,5.6341,5.6331,5.635,5.6351,5.6347,5.6344,5.6348,5.6349,5.635,5.6347,5.6337,5.6337,5.6336,5.6336,0,5.6376,5.6364,5.6384,5.6376,5.6375,5.639,5.6384,5.6395,5.6387,5.6401,5.6403,5.6391,5.64,5.6388,5.6396,5.6389,5.6415,5.6408,5.6415,5.6413,5.6435,5.6433,5.6509,5.6518,5.6446,5.6447,5.6447,0,5.641,5.6425,5.6419,5.6424,5.6423,5.6433,5.6437,5.6421,5.6426,5.6426,5.6437,5.6444,5.6449,5.6466,5.6458,5.6464,5.6456,5.6482,5.6457,5.6461,5.6456,5.6455,5.6456,5.6487,5.6488,5.6489,5.649,0,5.6473,5.6466,5.6473,5.6478,5.6483,5.6486,5.6488,5.6494,5.6477,5.6484,5.6493,5.6498,5.6506,5.6514,5.6518,5.6516,5.65,5.6498,5.6503,5.6507,5.6511,5.6509,5.6429,5.6496,5.6495,5.6495,5.6494,5.6494,5.652,5.6531,5.6529,5.6537,5.6536,5.6538,5.6548,5.6542,5.6549,5.6554,5.6545,5.6557,5.6555,5.6559,5.6559,5.6568,5.6556,5.6564,5.6566,5.6568,5.6571,5.651,5.6568,5.6568,5.6568,5.6568,5.6568,0,5.658,5.6578,5.6585,5.6588,5.6595,5.658,5.6581,5.6587,5.6598,5.6598,5.6603,5.6614,5.6622,5.6614,5.6621,5.6629,5.6622,5.6631,5.663,5.663,5.6581,5.6575,5.6637,5.6637,5.6637,5.6637,5.6637,5.6637,5.6613,5.6631,5.6625,5.6643,5.664,5.6651,5.6653,5.6655,5.6655,5.6668,5.6674,5.6669,5.6666,5.6672,5.6678,5.6676,5.6679,5.6691,5.6686,5.664,5.6633,5.6627,5.6622,5.6692,5.6692,5.6734,5.6735,5.6735]}]]